Year,Month,Day,Hour,Minute,Value (Times are PST for temperature in C)
2017,05,23,00,00,13.70
2017,05,23,00,01,13.70
2017,05,23,00,02,13.70
2017,05,23,00,03,13.60
2017,05,23,00,04,13.60
2017,05,23,00,05,13.60
2017,05,23,00,06,13.60
2017,05,23,00,07,13.50
2017,05,23,00,08,13.50
2017,05,23,00,09,13.50
2017,05,23,00,10,13.40
2017,05,23,00,11,13.40
2017,05,23,00,12,13.40
2017,05,23,00,13,13.30
2017,05,23,00,14,13.30
2017,05,23,00,15,13.30
2017,05,23,00,16,13.30
2017,05,23,00,17,13.30
2017,05,23,00,18,13.30
2017,05,23,00,19,13.20
2017,05,23,00,20,13.20
2017,05,23,00,21,13.20
2017,05,23,00,22,13.10
2017,05,23,00,23,13.10
2017,05,23,00,24,13.10
2017,05,23,00,25,13.10
2017,05,23,00,26,13.00
2017,05,23,00,27,13.00
2017,05,23,00,28,12.90
2017,05,23,00,29,12.90
2017,05,23,00,30,12.90
2017,05,23,00,31,12.80
2017,05,23,00,32,12.80
2017,05,23,00,33,12.80
2017,05,23,00,34,12.80
2017,05,23,00,35,12.80
2017,05,23,00,36,12.80
2017,05,23,00,38,12.80
2017,05,23,00,39,12.70
2017,05,23,00,41,12.70
2017,05,23,00,42,12.70
2017,05,23,00,43,12.60
2017,05,23,00,44,12.60
2017,05,23,00,46,12.60
2017,05,23,00,47,12.50
2017,05,23,00,48,12.50
2017,05,23,00,49,12.50
2017,05,23,00,51,12.40
2017,05,23,00,52,12.40
2017,05,23,00,53,12.40
2017,05,23,00,54,12.40
2017,05,23,00,56,12.40
2017,05,23,00,57,12.40
2017,05,23,00,58,12.30
2017,05,23,00,59,12.30
2017,05,23,01,01,12.30
2017,05,23,01,02,12.30
2017,05,23,01,03,12.30
2017,05,23,01,04,12.30
2017,05,23,01,06,12.30
2017,05,23,01,07,12.30
2017,05,23,01,08,12.30
2017,05,23,01,09,12.30
2017,05,23,01,11,12.30
2017,05,23,01,12,12.30
2017,05,23,01,13,12.30
2017,05,23,01,14,12.20
2017,05,23,01,16,12.20
2017,05,23,01,17,12.20
2017,05,23,01,18,12.20
2017,05,23,01,19,12.20
2017,05,23,01,21,12.20
2017,05,23,01,22,12.20
2017,05,23,01,23,12.10
2017,05,23,01,24,12.10
2017,05,23,01,26,12.10
2017,05,23,01,27,12.10
2017,05,23,01,28,12.10
2017,05,23,01,29,12.10
2017,05,23,01,31,12.10
2017,05,23,01,32,12.00
2017,05,23,01,33,12.00
2017,05,23,01,34,12.00
2017,05,23,01,36,12.00
2017,05,23,01,37,12.00
2017,05,23,01,38,12.00
2017,05,23,01,39,12.00
2017,05,23,01,41,12.00
2017,05,23,01,42,12.00
2017,05,23,01,43,12.00
2017,05,23,01,44,12.00
2017,05,23,01,46,11.90
2017,05,23,01,47,11.90
2017,05,23,01,48,11.90
2017,05,23,01,49,11.90
2017,05,23,01,51,11.90
2017,05,23,01,52,11.90
2017,05,23,01,53,11.80
2017,05,23,01,54,11.80
2017,05,23,01,56,11.80
2017,05,23,01,57,11.80
2017,05,23,01,58,11.80
2017,05,23,01,59,11.80
2017,05,23,02,00,11.80
2017,05,23,02,01,11.80
2017,05,23,02,02,11.80
2017,05,23,02,03,11.80
2017,05,23,02,04,11.80
2017,05,23,02,06,11.80
2017,05,23,02,07,11.70
2017,05,23,02,08,11.70
2017,05,23,02,09,11.70
2017,05,23,02,10,11.70
2017,05,23,02,11,11.70
2017,05,23,02,12,11.70
2017,05,23,02,13,11.60
2017,05,23,02,14,11.60
2017,05,23,02,15,11.60
2017,05,23,02,16,11.60
2017,05,23,02,17,11.60
2017,05,23,02,18,11.60
2017,05,23,02,19,11.60
2017,05,23,02,20,11.60
2017,05,23,02,21,11.60
2017,05,23,02,22,11.60
2017,05,23,02,23,11.60
2017,05,23,02,24,11.60
2017,05,23,02,25,11.60
2017,05,23,02,26,11.60
2017,05,23,02,27,11.60
2017,05,23,02,28,11.60
2017,05,23,02,29,11.60
2017,05,23,02,30,11.60
2017,05,23,02,31,11.60
2017,05,23,02,32,11.60
2017,05,23,02,33,11.60
2017,05,23,02,34,11.70
2017,05,23,02,35,11.70
2017,05,23,02,36,11.70
2017,05,23,02,37,11.70
2017,05,23,02,38,11.70
2017,05,23,02,39,11.70
2017,05,23,02,40,11.70
2017,05,23,02,41,11.80
2017,05,23,02,42,11.80
2017,05,23,02,43,11.80
2017,05,23,02,44,11.80
2017,05,23,02,45,11.80
2017,05,23,02,46,11.80
2017,05,23,02,47,11.80
2017,05,23,02,48,11.80
2017,05,23,02,49,11.80
2017,05,23,02,50,11.80
2017,05,23,02,51,11.80
2017,05,23,02,52,11.80
2017,05,23,02,53,11.80
2017,05,23,02,54,11.80
2017,05,23,02,55,11.80
2017,05,23,02,56,11.80
2017,05,23,02,57,11.80
2017,05,23,02,58,11.80
2017,05,23,02,59,11.80
2017,05,23,03,00,11.80
2017,05,23,03,01,11.80
2017,05,23,03,02,11.80
2017,05,23,03,03,11.80
2017,05,23,03,04,11.80
2017,05,23,03,05,11.80
2017,05,23,03,06,11.80
2017,05,23,03,07,11.80
2017,05,23,03,08,11.80
2017,05,23,03,09,11.80
2017,05,23,03,10,11.80
2017,05,23,03,11,11.80
2017,05,23,03,12,11.80
2017,05,23,03,13,11.80
2017,05,23,03,14,11.80
2017,05,23,03,15,11.70
2017,05,23,03,16,11.70
2017,05,23,03,17,11.70
2017,05,23,03,19,11.70
2017,05,23,03,20,11.70
2017,05,23,03,22,11.60
2017,05,23,03,23,11.60
2017,05,23,03,24,11.60
2017,05,23,03,26,11.60
2017,05,23,03,27,11.60
2017,05,23,03,28,11.60
2017,05,23,03,29,11.60
2017,05,23,03,31,11.60
2017,05,23,03,32,11.60
2017,05,23,03,33,11.60
2017,05,23,03,34,11.60
2017,05,23,03,36,11.40
2017,05,23,03,37,11.40
2017,05,23,03,38,11.40
2017,05,23,03,39,11.40
2017,05,23,03,41,11.40
2017,05,23,03,42,11.40
2017,05,23,03,43,11.40
2017,05,23,03,44,11.40
2017,05,23,03,46,11.40
2017,05,23,03,47,11.40
2017,05,23,03,48,11.40
2017,05,23,03,49,11.40
2017,05,23,03,51,11.40
2017,05,23,03,52,11.40
2017,05,23,03,53,11.40
2017,05,23,03,54,11.40
2017,05,23,03,56,11.40
2017,05,23,03,57,11.40
2017,05,23,03,58,11.40
2017,05,23,03,59,11.40
2017,05,23,04,01,11.40
2017,05,23,04,02,11.40
2017,05,23,04,03,11.40
2017,05,23,04,04,11.40
2017,05,23,04,06,11.40
2017,05,23,04,07,11.40
2017,05,23,04,08,11.40
2017,05,23,04,09,11.40
2017,05,23,04,11,11.40
2017,05,23,04,12,11.40
2017,05,23,04,13,11.40
2017,05,23,04,14,11.40
2017,05,23,04,16,11.40
2017,05,23,04,17,11.40
2017,05,23,04,18,11.40
2017,05,23,04,19,11.40
2017,05,23,04,21,11.40
2017,05,23,04,22,11.40
2017,05,23,04,23,11.40
2017,05,23,04,24,11.40
2017,05,23,04,26,11.40
2017,05,23,04,27,11.40
2017,05,23,04,28,11.40
2017,05,23,04,29,11.40
2017,05,23,04,31,11.40
2017,05,23,04,32,11.40
2017,05,23,04,33,11.30
2017,05,23,04,34,11.30
2017,05,23,04,36,11.30
2017,05,23,04,37,11.30
2017,05,23,04,38,11.30
2017,05,23,04,39,11.30
2017,05,23,04,41,11.40
2017,05,23,04,42,11.40
2017,05,23,04,43,11.40
2017,05,23,04,44,11.40
2017,05,23,04,45,11.40
2017,05,23,04,46,11.40
2017,05,23,04,47,11.40
2017,05,23,04,48,11.40
2017,05,23,04,49,11.40
2017,05,23,04,50,11.40
2017,05,23,04,51,11.40
2017,05,23,04,52,11.40
2017,05,23,04,53,11.40
2017,05,23,04,54,11.40
2017,05,23,04,55,11.40
2017,05,23,04,56,11.40
2017,05,23,04,57,11.40
2017,05,23,04,58,11.40
2017,05,23,04,59,11.40
2017,05,23,05,00,11.40
2017,05,23,05,01,11.40
2017,05,23,05,02,11.40
2017,05,23,05,03,11.40
2017,05,23,05,04,11.40
2017,05,23,05,06,11.30
2017,05,23,05,07,11.30
2017,05,23,05,08,11.30
2017,05,23,05,09,11.30
2017,05,23,05,10,11.30
2017,05,23,05,11,11.30
2017,05,23,05,12,11.30
2017,05,23,05,13,11.30
2017,05,23,05,14,11.30
2017,05,23,05,15,11.20
2017,05,23,05,16,11.20
2017,05,23,05,17,11.20
2017,05,23,05,18,11.20
2017,05,23,05,19,11.20
2017,05,23,05,20,11.20
2017,05,23,05,21,11.20
2017,05,23,05,22,11.20
2017,05,23,05,23,11.20
2017,05,23,05,24,11.20
2017,05,23,05,25,11.20
2017,05,23,05,26,11.20
2017,05,23,05,27,11.20
2017,05,23,05,28,11.20
2017,05,23,05,29,11.20
2017,05,23,05,30,11.20
2017,05,23,05,31,11.20
2017,05,23,05,32,11.20
2017,05,23,05,33,11.20
2017,05,23,05,34,11.20
2017,05,23,05,35,11.20
2017,05,23,05,36,11.30
2017,05,23,05,37,11.30
2017,05,23,05,38,11.30
2017,05,23,05,39,11.30
2017,05,23,05,40,11.40
2017,05,23,05,41,11.40
2017,05,23,05,42,11.40
2017,05,23,05,43,11.40
2017,05,23,05,44,11.40
2017,05,23,05,45,11.40
2017,05,23,05,46,11.40
2017,05,23,05,47,11.40
2017,05,23,05,48,11.40
2017,05,23,05,49,11.60
2017,05,23,05,50,11.60
2017,05,23,05,51,11.60
2017,05,23,05,52,11.60
2017,05,23,05,53,11.60
2017,05,23,05,54,11.60
2017,05,23,05,55,11.60
2017,05,23,05,56,11.60
2017,05,23,05,57,11.60
2017,05,23,05,58,11.70
2017,05,23,05,59,11.70
2017,05,23,06,00,11.70
2017,05,23,06,02,11.80
2017,05,23,06,03,11.80
2017,05,23,06,04,11.80
2017,05,23,06,06,11.80
2017,05,23,06,07,11.80
2017,05,23,06,08,11.80
2017,05,23,06,09,11.80
2017,05,23,06,11,11.80
2017,05,23,06,12,11.80
2017,05,23,06,13,11.80
2017,05,23,06,14,11.80
2017,05,23,06,16,11.80
2017,05,23,06,17,11.80
2017,05,23,06,18,11.80
2017,05,23,06,19,11.90
2017,05,23,06,21,11.90
2017,05,23,06,22,11.90
2017,05,23,06,23,11.90
2017,05,23,06,24,11.90
2017,05,23,06,26,11.90
2017,05,23,06,27,11.90
2017,05,23,06,28,11.90
2017,05,23,06,29,11.90
2017,05,23,06,31,11.90
2017,05,23,06,32,11.90
2017,05,23,06,33,11.90
2017,05,23,06,34,11.90
2017,05,23,06,36,11.90
2017,05,23,06,37,11.90
2017,05,23,06,38,11.90
2017,05,23,06,39,11.90
2017,05,23,06,41,12.00
2017,05,23,06,42,12.00
2017,05,23,06,43,12.00
2017,05,23,06,44,12.00
2017,05,23,06,46,12.00
2017,05,23,06,47,12.10
2017,05,23,06,48,12.10
2017,05,23,06,49,12.10
2017,05,23,06,51,12.20
2017,05,23,06,52,12.20
2017,05,23,06,53,12.20
2017,05,23,06,54,12.20
2017,05,23,06,56,12.20
2017,05,23,06,57,12.20
2017,05,23,06,58,12.20
2017,05,23,06,59,12.20
2017,05,23,07,01,12.20
2017,05,23,07,02,12.30
2017,05,23,07,03,12.30
2017,05,23,07,04,12.30
2017,05,23,07,06,12.30
2017,05,23,07,07,12.40
2017,05,23,07,08,12.40
2017,05,23,07,09,12.40
2017,05,23,07,11,12.40
2017,05,23,07,12,12.40
2017,05,23,07,13,12.40
2017,05,23,07,14,12.40
2017,05,23,07,16,12.40
2017,05,23,07,17,12.40
2017,05,23,07,18,12.40
2017,05,23,07,19,12.50
2017,05,23,07,21,12.50
2017,05,23,07,22,12.50
2017,05,23,07,23,12.50
2017,05,23,07,24,12.50
2017,05,23,07,25,12.60
2017,05,23,07,26,12.60
2017,05,23,07,27,12.70
2017,05,23,07,28,12.70
2017,05,23,07,29,12.80
2017,05,23,07,31,12.80
2017,05,23,07,32,12.90
2017,05,23,07,33,12.90
2017,05,23,07,34,13.00
2017,05,23,07,36,13.00
2017,05,23,07,37,13.10
2017,05,23,07,38,13.10
2017,05,23,07,39,13.10
2017,05,23,07,40,13.10
2017,05,23,07,41,13.20
2017,05,23,07,42,13.20
2017,05,23,07,43,13.20
2017,05,23,07,44,13.20
2017,05,23,07,45,13.30
2017,05,23,07,46,13.30
2017,05,23,07,47,13.40
2017,05,23,07,48,13.50
2017,05,23,07,49,13.50
2017,05,23,07,50,13.60
2017,05,23,07,51,13.70
2017,05,23,07,52,13.70
2017,05,23,07,53,13.80
2017,05,23,07,54,13.90
2017,05,23,07,55,14.00
2017,05,23,07,56,14.00
2017,05,23,07,57,14.10
2017,05,23,07,58,14.20
2017,05,23,07,59,14.20
2017,05,23,08,00,14.30
2017,05,23,08,01,14.30
2017,05,23,08,02,14.40
2017,05,23,08,03,14.40
2017,05,23,08,04,14.40
2017,05,23,08,05,14.50
2017,05,23,08,06,14.50
2017,05,23,08,07,14.50
2017,05,23,08,08,14.50
2017,05,23,08,09,14.60
2017,05,23,08,10,14.70
2017,05,23,08,11,14.70
2017,05,23,08,12,14.80
2017,05,23,08,13,14.80
2017,05,23,08,14,14.90
2017,05,23,08,15,15.10
2017,05,23,08,16,15.10
2017,05,23,08,17,15.20
2017,05,23,08,18,15.30
2017,05,23,08,19,15.30
2017,05,23,08,20,15.30
2017,05,23,08,21,15.40
2017,05,23,08,22,15.50
2017,05,23,08,23,15.50
2017,05,23,08,24,15.60
2017,05,23,08,25,15.60
2017,05,23,08,26,15.60
2017,05,23,08,27,15.70
2017,05,23,08,28,15.80
2017,05,23,08,29,15.80
2017,05,23,08,30,15.80
2017,05,23,08,31,15.90
2017,05,23,08,32,16.10
2017,05,23,08,33,16.20
2017,05,23,08,34,16.30
2017,05,23,08,35,16.40
2017,05,23,08,36,16.40
2017,05,23,08,37,16.60
2017,05,23,08,38,16.70
2017,05,23,08,39,16.70
2017,05,23,08,40,16.80
2017,05,23,08,42,16.90
2017,05,23,08,43,17.00
2017,05,23,08,44,17.10
2017,05,23,08,46,17.20
2017,05,23,08,47,17.30
2017,05,23,08,49,17.30
2017,05,23,08,51,17.40
2017,05,23,08,52,17.40
2017,05,23,08,53,17.40
2017,05,23,08,54,17.50
2017,05,23,08,56,17.50
2017,05,23,08,57,17.50
2017,05,23,08,58,17.60
2017,05,23,08,59,17.60
2017,05,23,09,01,17.70
2017,05,23,09,02,17.70
2017,05,23,09,03,17.80
2017,05,23,09,04,17.80
2017,05,23,09,06,17.90
2017,05,23,09,07,17.90
2017,05,23,09,08,17.90
2017,05,23,09,09,17.80
2017,05,23,09,11,17.70
2017,05,23,09,12,17.70
2017,05,23,09,13,17.60
2017,05,23,09,14,17.60
2017,05,23,09,16,17.60
2017,05,23,09,17,17.60
2017,05,23,09,18,17.60
2017,05,23,09,19,17.60
2017,05,23,09,21,17.60
2017,05,23,09,22,17.60
2017,05,23,09,23,17.70
2017,05,23,09,24,17.70
2017,05,23,09,26,17.90
2017,05,23,09,27,17.90
2017,05,23,09,28,17.90
2017,05,23,09,29,18.10
2017,05,23,09,31,18.20
2017,05,23,09,32,18.20
2017,05,23,09,33,18.20
2017,05,23,09,34,18.20
2017,05,23,09,36,18.20
2017,05,23,09,37,18.20
2017,05,23,09,38,18.30
2017,05,23,09,39,18.30
2017,05,23,09,41,18.40
2017,05,23,09,42,18.50
2017,05,23,09,43,18.50
2017,05,23,09,44,18.50
2017,05,23,09,46,18.60
2017,05,23,09,47,18.70
2017,05,23,09,48,18.80
2017,05,23,09,49,18.80
2017,05,23,09,51,18.90
2017,05,23,09,52,19.10
2017,05,23,09,53,19.10
2017,05,23,09,54,19.20
2017,05,23,09,56,19.40
2017,05,23,09,57,19.50
2017,05,23,09,58,19.60
2017,05,23,09,59,19.60
2017,05,23,10,01,19.90
2017,05,23,10,02,19.90
2017,05,23,10,03,20.10
2017,05,23,10,04,20.10
2017,05,23,10,06,20.20
2017,05,23,10,07,20.30
2017,05,23,10,08,20.30
2017,05,23,10,09,20.20
2017,05,23,10,10,20.20
2017,05,23,10,11,20.10
2017,05,23,10,12,19.90
2017,05,23,10,13,19.90
2017,05,23,10,14,19.80
2017,05,23,10,15,19.70
2017,05,23,10,16,19.60
2017,05,23,10,17,19.40
2017,05,23,10,18,19.30
2017,05,23,10,19,19.10
2017,05,23,10,20,19.10
2017,05,23,10,21,19.10
2017,05,23,10,22,19.10
2017,05,23,10,23,19.10
2017,05,23,10,24,19.10
2017,05,23,10,25,19.20
2017,05,23,10,26,19.30
2017,05,23,10,27,19.40
2017,05,23,10,28,19.60
2017,05,23,10,29,19.80
2017,05,23,10,30,19.90
2017,05,23,10,31,20.10
2017,05,23,10,32,20.20
2017,05,23,10,33,20.30
2017,05,23,10,34,20.40
2017,05,23,10,35,20.50
2017,05,23,10,36,20.60
2017,05,23,10,37,20.70
2017,05,23,10,38,20.80
2017,05,23,10,39,20.90
2017,05,23,10,40,21.00
2017,05,23,10,41,21.10
2017,05,23,10,42,21.20
2017,05,23,10,43,21.30
2017,05,23,10,44,21.30
2017,05,23,10,45,21.30
2017,05,23,10,46,21.40
2017,05,23,10,47,21.60
2017,05,23,10,48,21.60
2017,05,23,10,49,21.60
2017,05,23,10,50,21.60
2017,05,23,10,51,21.60
2017,05,23,10,52,21.70
2017,05,23,10,53,21.70
2017,05,23,10,54,21.70
2017,05,23,10,55,21.60
2017,05,23,10,56,21.60
2017,05,23,10,57,21.60
2017,05,23,10,58,21.60
2017,05,23,10,59,21.60
2017,05,23,11,00,21.60
2017,05,23,11,01,21.60
2017,05,23,11,02,21.40
2017,05,23,11,03,21.40
2017,05,23,11,04,21.40
2017,05,23,11,05,21.40
2017,05,23,11,06,21.30
2017,05,23,11,07,21.30
2017,05,23,11,08,21.30
2017,05,23,11,09,21.40
2017,05,23,11,10,21.40
2017,05,23,11,11,21.40
2017,05,23,11,12,21.40
2017,05,23,11,13,21.40
2017,05,23,11,14,21.30
2017,05,23,11,15,21.30
2017,05,23,11,16,21.20
2017,05,23,11,17,21.20
2017,05,23,11,19,21.10
2017,05,23,11,21,21.00
2017,05,23,11,22,21.00
2017,05,23,11,23,20.90
2017,05,23,11,24,20.80
2017,05,23,11,26,20.60
2017,05,23,11,27,20.60
2017,05,23,11,28,20.60
2017,05,23,11,29,20.60
2017,05,23,11,31,20.50
2017,05,23,11,32,20.50
2017,05,23,11,33,20.60
2017,05,23,11,34,20.60
2017,05,23,11,36,20.60
2017,05,23,11,37,20.60
2017,05,23,11,38,20.60
2017,05,23,11,39,20.60
2017,05,23,11,41,20.60
2017,05,23,11,42,20.60
2017,05,23,11,43,20.70
2017,05,23,11,44,20.80
2017,05,23,11,46,20.90
2017,05,23,11,47,20.90
2017,05,23,11,48,20.90
2017,05,23,11,49,20.90
2017,05,23,11,51,21.00
2017,05,23,11,52,21.00
2017,05,23,11,53,21.10
2017,05,23,11,54,21.20
2017,05,23,11,56,21.30
2017,05,23,11,57,21.40
2017,05,23,11,58,21.40
2017,05,23,11,59,21.40
2017,05,23,12,01,21.60
2017,05,23,12,02,21.60
2017,05,23,12,03,21.60
2017,05,23,12,04,21.60
2017,05,23,12,06,21.60
2017,05,23,12,07,21.60
2017,05,23,12,08,21.40
2017,05,23,12,09,21.40
2017,05,23,12,11,21.40
2017,05,23,12,12,21.40
2017,05,23,12,13,21.30
2017,05,23,12,14,21.30
2017,05,23,12,16,21.20
2017,05,23,12,17,21.10
2017,05,23,12,18,21.00
2017,05,23,12,19,20.90
2017,05,23,12,21,20.90
2017,05,23,12,22,20.90
2017,05,23,12,23,20.90
2017,05,23,12,24,20.90
2017,05,23,12,26,20.90
2017,05,23,12,27,20.90
2017,05,23,12,28,20.90
2017,05,23,12,29,20.90
2017,05,23,12,31,20.90
2017,05,23,12,32,20.90
2017,05,23,12,33,20.90
2017,05,23,12,34,20.90
2017,05,23,12,36,20.90
2017,05,23,12,37,20.80
2017,05,23,12,38,20.70
2017,05,23,12,39,20.70
2017,05,23,12,41,20.70
2017,05,23,12,42,20.70
2017,05,23,12,43,20.80
2017,05,23,12,44,20.70
2017,05,23,12,45,20.80
2017,05,23,12,46,20.80
2017,05,23,12,47,20.90
2017,05,23,12,48,20.90
2017,05,23,12,49,20.90
2017,05,23,12,51,20.90
2017,05,23,12,52,20.90
2017,05,23,12,53,20.90
2017,05,23,12,54,20.90
2017,05,23,12,55,20.90
2017,05,23,12,56,20.90
2017,05,23,12,57,20.90
2017,05,23,12,58,20.90
2017,05,23,12,59,20.80
2017,05,23,13,01,20.70
2017,05,23,13,02,20.60
2017,05,23,13,03,20.60
2017,05,23,13,04,20.60
2017,05,23,13,06,20.60
2017,05,23,13,07,20.60
2017,05,23,13,08,20.60
2017,05,23,13,09,20.70
2017,05,23,13,10,20.70
2017,05,23,13,11,20.70
2017,05,23,13,12,20.80
2017,05,23,13,13,20.80
2017,05,23,13,14,20.90
2017,05,23,13,15,20.90
2017,05,23,13,16,21.00
2017,05,23,13,17,21.00
2017,05,23,13,18,21.10
2017,05,23,13,19,21.10
2017,05,23,13,20,21.20
2017,05,23,13,21,21.20
2017,05,23,13,22,21.30
2017,05,23,13,23,21.30
2017,05,23,13,24,21.30
2017,05,23,13,25,21.30
2017,05,23,13,26,21.40
2017,05,23,13,27,21.40
2017,05,23,13,28,21.60
2017,05,23,13,29,21.40
2017,05,23,13,30,21.40
2017,05,23,13,31,21.30
2017,05,23,13,32,21.30
2017,05,23,13,33,21.30
2017,05,23,13,34,21.20
2017,05,23,13,35,21.10
2017,05,23,13,36,21.00
2017,05,23,13,37,20.90
2017,05,23,13,38,20.90
2017,05,23,13,39,20.80
2017,05,23,13,40,20.80
2017,05,23,13,41,20.80
2017,05,23,13,42,20.80
2017,05,23,13,43,20.80
2017,05,23,13,44,20.80
2017,05,23,13,45,20.80
2017,05,23,13,46,20.70
2017,05,23,13,47,20.60
2017,05,23,13,48,20.60
2017,05,23,13,49,20.60
2017,05,23,13,50,20.60
2017,05,23,13,51,20.70
2017,05,23,13,52,20.70
2017,05,23,13,53,20.80
2017,05,23,13,54,20.80
2017,05,23,13,55,20.80
2017,05,23,13,56,20.80
2017,05,23,13,57,20.80
2017,05,23,13,58,20.80
2017,05,23,13,59,20.70
2017,05,23,14,00,20.60
2017,05,23,14,01,20.50
2017,05,23,14,02,20.50
2017,05,23,14,03,20.50
2017,05,23,14,04,20.50
2017,05,23,14,05,20.50
2017,05,23,14,06,20.60
2017,05,23,14,08,20.60
2017,05,23,14,09,20.50
2017,05,23,14,11,20.50
2017,05,23,14,12,20.50
2017,05,23,14,13,20.50
2017,05,23,14,14,20.50
2017,05,23,14,16,20.40
2017,05,23,14,17,20.40
2017,05,23,14,18,20.30
2017,05,23,14,19,20.30
2017,05,23,14,21,20.30
2017,05,23,14,22,20.30
2017,05,23,14,23,20.30
2017,05,23,14,24,20.30
2017,05,23,14,26,20.40
2017,05,23,14,27,20.50
2017,05,23,14,28,20.50
2017,05,23,14,29,20.60
2017,05,23,14,31,20.60
2017,05,23,14,32,20.70
2017,05,23,14,33,20.70
2017,05,23,14,34,20.70
2017,05,23,14,36,20.80
2017,05,23,14,37,20.90
2017,05,23,14,38,21.00
2017,05,23,14,39,21.00
2017,05,23,14,41,21.00
2017,05,23,14,42,21.00
2017,05,23,14,43,21.10
2017,05,23,14,44,21.10
2017,05,23,14,46,21.10
2017,05,23,14,47,21.20
2017,05,23,14,48,21.20
2017,05,23,14,49,21.20
2017,05,23,14,51,21.20
2017,05,23,14,52,21.20
2017,05,23,14,53,21.10
2017,05,23,14,54,21.10
2017,05,23,14,56,21.00
2017,05,23,14,57,21.00
2017,05,23,14,58,21.00
2017,05,23,14,59,20.90
2017,05,23,15,01,20.80
2017,05,23,15,02,20.70
2017,05,23,15,03,20.80
2017,05,23,15,04,20.80
2017,05,23,15,06,20.80
2017,05,23,15,07,20.90
2017,05,23,15,08,20.90
2017,05,23,15,09,20.90
2017,05,23,15,11,20.90
2017,05,23,15,12,20.80
2017,05,23,15,13,20.80
2017,05,23,15,14,20.80
2017,05,23,15,16,20.80
2017,05,23,15,17,20.80
2017,05,23,15,18,20.80
2017,05,23,15,19,20.80
2017,05,23,15,21,20.80
2017,05,23,15,22,20.80
2017,05,23,15,23,20.70
2017,05,23,15,24,20.70
2017,05,23,15,26,20.30
2017,05,23,15,27,20.20
2017,05,23,15,28,20.20
2017,05,23,15,29,19.90
2017,05,23,15,31,19.80
2017,05,23,15,32,19.70
2017,05,23,15,33,19.60
2017,05,23,15,34,19.60
2017,05,23,15,36,19.40
2017,05,23,15,37,19.40
2017,05,23,15,38,19.30
2017,05,23,15,39,19.20
2017,05,23,15,41,19.10
2017,05,23,15,42,19.10
2017,05,23,15,43,19.10
2017,05,23,15,44,19.10
2017,05,23,15,45,19.10
2017,05,23,15,46,18.90
2017,05,23,15,47,18.90
2017,05,23,15,48,18.90
2017,05,23,15,49,18.90
2017,05,23,15,50,18.90
2017,05,23,15,51,18.90
2017,05,23,15,52,18.90
2017,05,23,15,53,18.90
2017,05,23,15,54,18.90
2017,05,23,15,55,18.90
2017,05,23,15,56,18.90
2017,05,23,15,57,19.10
2017,05,23,15,58,18.90
2017,05,23,15,59,18.90
2017,05,23,16,00,18.90
2017,05,23,16,01,18.90
2017,05,23,16,02,18.90
2017,05,23,16,03,18.80
2017,05,23,16,04,18.80
2017,05,23,16,05,18.80
2017,05,23,16,06,18.70
2017,05,23,16,07,18.70
2017,05,23,16,08,18.70
2017,05,23,16,09,18.70
2017,05,23,16,10,18.60
2017,05,23,16,11,18.60
2017,05,23,16,12,18.50
2017,05,23,16,13,18.50
2017,05,23,16,14,18.40
2017,05,23,16,15,18.40
2017,05,23,16,16,18.40
2017,05,23,16,17,18.40
2017,05,23,16,18,18.40
2017,05,23,16,19,18.40
2017,05,23,16,20,18.40
2017,05,23,16,21,18.40
2017,05,23,16,22,18.40
2017,05,23,16,23,18.30
2017,05,23,16,24,18.30
2017,05,23,16,25,18.20
2017,05,23,16,26,18.20
2017,05,23,16,27,18.20
2017,05,23,16,28,18.20
2017,05,23,16,29,18.20
2017,05,23,16,30,18.30
2017,05,23,16,31,18.30
2017,05,23,16,32,18.30
2017,05,23,16,33,18.20
2017,05,23,16,34,18.20
2017,05,23,16,35,18.10
2017,05,23,16,36,17.90
2017,05,23,16,37,17.90
2017,05,23,16,38,17.80
2017,05,23,16,39,17.60
2017,05,23,16,40,17.60
2017,05,23,16,41,17.50
2017,05,23,16,42,17.50
2017,05,23,16,43,17.40
2017,05,23,16,44,17.40
2017,05,23,16,45,17.30
2017,05,23,16,46,17.30
2017,05,23,16,47,17.30
2017,05,23,16,48,17.30
2017,05,23,16,49,17.30
2017,05,23,16,50,17.30
2017,05,23,16,51,17.30
2017,05,23,16,52,17.30
2017,05,23,16,53,17.30
2017,05,23,16,54,17.30
2017,05,23,16,55,17.20
2017,05,23,16,56,17.10
2017,05,23,16,57,17.00
2017,05,23,16,58,16.90
2017,05,23,16,59,16.80
2017,05,23,17,00,16.70
2017,05,23,17,01,16.70
2017,05,23,17,03,16.40
2017,05,23,17,04,16.40
2017,05,23,17,06,16.40
2017,05,23,17,07,16.30
2017,05,23,17,08,16.30
2017,05,23,17,09,16.20
2017,05,23,17,11,16.20
2017,05,23,17,12,16.10
2017,05,23,17,13,16.10
2017,05,23,17,14,15.90
2017,05,23,17,16,15.90
2017,05,23,17,17,15.80
2017,05,23,17,18,15.80
2017,05,23,17,19,15.80
2017,05,23,17,21,15.80
2017,05,23,17,22,15.80
2017,05,23,17,23,15.80
2017,05,23,17,24,15.80
2017,05,23,17,26,15.80
2017,05,23,17,27,15.80
2017,05,23,17,28,15.80
2017,05,23,17,29,15.70
2017,05,23,17,31,15.60
2017,05,23,17,32,15.60
2017,05,23,17,33,15.50
2017,05,23,17,34,15.50
2017,05,23,17,36,15.50
2017,05,23,17,37,15.40
2017,05,23,17,38,15.40
2017,05,23,17,39,15.40
2017,05,23,17,41,15.40
2017,05,23,17,42,15.40
2017,05,23,17,43,15.40
2017,05,23,17,44,15.30
2017,05,23,17,46,15.30
2017,05,23,17,47,15.40
2017,05,23,17,48,15.40
2017,05,23,17,49,15.30
2017,05,23,17,51,15.30
2017,05,23,17,52,15.30
2017,05,23,17,53,15.30
2017,05,23,17,54,15.40
2017,05,23,17,56,15.40
2017,05,23,17,57,15.40
2017,05,23,17,58,15.30
2017,05,23,17,59,15.30
2017,05,23,18,01,15.30
2017,05,23,18,02,15.30
2017,05,23,18,03,15.20
2017,05,23,18,04,15.20
2017,05,23,18,06,15.20
2017,05,23,18,07,15.20
2017,05,23,18,08,15.20
2017,05,23,18,09,15.20
2017,05,23,18,11,15.20
2017,05,23,18,12,15.20
2017,05,23,18,13,15.20
2017,05,23,18,14,15.20
2017,05,23,18,16,15.10
2017,05,23,18,17,15.20
2017,05,23,18,18,15.20
2017,05,23,18,19,15.10
2017,05,23,18,21,15.00
2017,05,23,18,22,15.00
2017,05,23,18,23,15.00
2017,05,23,18,24,15.00
2017,05,23,18,25,14.90
2017,05,23,18,26,14.90
2017,05,23,18,27,14.80
2017,05,23,18,28,14.80
2017,05,23,18,29,14.80
2017,05,23,18,31,14.70
2017,05,23,18,32,14.70
2017,05,23,18,33,14.70
2017,05,23,18,34,14.70
2017,05,23,18,35,14.70
2017,05,23,18,36,14.70
2017,05,23,18,37,14.70
2017,05,23,18,38,14.60
2017,05,23,18,39,14.60
2017,05,23,18,40,14.60
2017,05,23,18,41,14.50
2017,05,23,18,42,14.50
2017,05,23,18,43,14.40
2017,05,23,18,44,14.40
2017,05,23,18,45,14.30
2017,05,23,18,46,14.30
2017,05,23,18,47,14.30
2017,05,23,18,48,14.30
2017,05,23,18,49,14.40
2017,05,23,18,50,14.40
2017,05,23,18,51,14.40
2017,05,23,18,52,14.40
2017,05,23,18,53,14.40
2017,05,23,18,54,14.30
2017,05,23,18,55,14.20
2017,05,23,18,56,14.20
2017,05,23,18,57,14.20
2017,05,23,18,58,14.20
2017,05,23,18,59,14.20
2017,05,23,19,00,14.10
2017,05,23,19,01,14.00
